Zurück zum Katalog

DELTA 1 DEB

AktivSSO
NORAD 7139·DEBRIS·🇺🇸 United States

Gestartet Nov 6, 1973 von Vandenberg Space Force Base

Loading…

Nächste Überflüge (nächste 24 Stunden)

TLE

AktuellSource: Space-Track

Epoche: Sep 14, 2026, 10:09 UTC

1 07139U 73086DD  26257.42312178  .00000075  00000-0  92749-3 0  9990
2 07139 102.4200  69.1217 0062254  73.9807 314.0385 12.37920966376319

Verfolge DELTA 1 DEB in Echtzeit mit AllMySat

Download on the App Store